Location: Unspecified
(0.0000°N, 0.0000°E)
Time: 17:33:40
(UTC+00:00)

Tiangong 2 - Visible Passes

Search period start: 24 May 2017 00:00
Search period end: 03 June 2017 00:00
Orbit: 380 x 389 km, 42.8° (Epoch: 24 May)

Date Brightness Start Highest point End Pass type
(mag) Time Alt. Az. Time Alt. Az. Time Alt. Az.
24 May 2.1 04:42:03 10° NNW 04:45:03 46° NE 04:48:04 10° ESE visible
25 May 4.6 03:47:27 11° E 03:47:27 11° E 03:47:35 10° E visible
25 May 2.6 05:19:49 10° W 05:22:03 18° SW 05:24:21 10° S visible
26 May 3.8 04:25:16 12° SSE 04:25:16 12° SSE 04:25:32 10° SSE visible
